Regional Weather Roundup
Issued by NWS

Home | Current Version | Previous Version | Graphics & Text | Print | Product List | Glossary Off
Versions: 1 2 3 4 5 6 7 8 9 10 11 12 13 14 15 16 17 18 19 20 21 22 23 24 25 26 27 28 29 30 31 32 33 34 35 36 37 38 39 40 41 42 43 44 45 46 47 48 49 50

000
ASUS45 KBOU 291307
RWRCO

WEATHER ROUNDUP FOR COLORADO
NATIONAL WEATHER SERVICE DENVER/BOULDER CO
700 AM MDT MON AUG 29 2016

NOTE: "FAIR" INDICATES FEW OR NO CLOUDS BELOW 12000 FEET WITH NO
SIGNIFICANT WEATHER AND/OR OBSTRUCTIONS TO VISIBILITY.

COZ001>005-013-030-031-291400-
...NORTHWEST COLORADO...

CITY           SKY/WX    TMP DP  RH WIND       PRES   REMARKS
CRAIG          FAIR      40  35  83 CALM      30.37R
HAYDEN         FAIR      48  34  57 E10       30.38R
MEEKER         FAIR      42  39  89 CALM      30.37R
MOUNT WERNER   NOT AVBL
STEAMBOAT SPGS FAIR      42  36  78 CALM      30.40R
WALDEN         FAIR      34  30  86 SE5       30.50R WCI  30
$$

COZ006>008-011-291400-
...WEST CENTRAL VALLEYS...

CITY           SKY/WX    TMP DP  RH WIND       PRES   REMARKS
GRAND JUNCTION FAIR      56  45  66 E9        30.27S
MONTROSE       FAIR      52  44  74 SE3       30.35R
EAGLE          FAIR      46  45  93 SE3       30.44R
RIFLE          FAIR      50  48  93 E6        30.33R
DELTA          NOT AVBL
NUCLA          FAIR     N/A N/A N/A SE8       30.37R
$$

COZ017>023-064>068-291400-
...SOUTHWEST COLORADO...

CITY           SKY/WX    TMP DP  RH WIND       PRES   REMARKS
DURANGO        FAIR      46  40  79 E5        30.36S
CORTEZ         FAIR      47  43  86 CALM      30.33R
PAGOSA SPRINGS FAIR      51  44  77 CALM      30.46S
TELLURIDE      FAIR      44  41  90 SE7       30.51S
WOLF CREEK PAS SNOW      34  34 100 NE14      30.68F VSB 1/2 WCI  24
$$

COZ009-010-012-014-032>034-037-058>063-291400-
...CENTRAL COLORADO...

CITY           SKY/WX    TMP DP  RH WIND       PRES   REMARKS
ASPEN          FAIR      44  40  85 CALM      30.44R
BUENA VISTA    MOCLDY    49  45  87 NW5       30.46F
COPPER MTN     CLOUDY    45  32  61 E3        30.68R
BERTHOUD PASS  CLOUDY    37  27  65 E22G31    30.71S
COTTONWOOD PAS FAIR      46  37  71 W9        30.55F
GUNNISON       FAIR      48  39  71 CALM      30.48S
KREMMLING      FAIR      39  36  87 CALM      30.49R
LEADVILLE      CLOUDY    40  37  89 NE5       30.56S
MONARCH PASS   CLOUDY    37  34  87 NE7       30.74S
SALIDA         CLOUDY    52  48  87 SW3       30.52F
SUNLIGHT       FAIR      45  36  70 SW3       30.63R
WILKERSON PASS FAIR      37  36  93 E8G16     30.62F
$$

COZ069>075-291400-
...SAN LUIS VALLEY/SANGRE DE CRISTO MOUNTAINS...

CITY           SKY/WX    TMP DP  RH WIND       PRES   REMARKS
ALAMOSA        FAIR      45  43  93 CALM      30.43S
LA VETA PASS   FAIR      41  37  87 W5        30.56R
SAGUACHE       FAIR      50  43  76 NW5       30.43R
$$

COZ035-036-038>040-291400-
...NORTHERN COLORADO FRONT RANGE...

CITY           SKY/WX    TMP DP  RH WIND       PRES   REMARKS
DENVER INTL AP MOCLDY    64  44  48 SW10      30.27R
DMNS CITY PARK   N/A     64  44  48 S7        30.26S
AURORA         MOCLDY    61  45  54 S5        30.29R
FRONT RANGE AP MOCLDY    64  46  52 S9        30.28
ERIE MUNI ARPT FAIR      63  42  46 NE5       30.25R
BOULDER MUN AP FAIR      63  43  48 W3        30.25S
CENTENNIAL     MOCLDY    63  42  46 SW8       30.29S
BROOMFIELD     MOCLDY    66  39  37 NW9       30.28S
FORT COLLINS   FAIR      57  48  72 N5        30.26R
LONGMONT       FAIR      61  47  60 N3        30.26R
$$

COZ041-046-047-076>085-087-088-291400-
...PIKES PEAK/PALMER DIVIDE AND SOUTHERN FOOTHILLS...

CITY           SKY/WX    TMP DP  RH WIND       PRES   REMARKS
COLO. SPRINGS  FAIR      56  48  74 VRB5      30.33R
A. F. ACADEMY  FAIR      53  49  85 N9        30.34R
SCHRIEVER AFB  NOT AVBL
ELLICOTT       NOT AVBL
FALCON         FAIR      56  43  61 N6        30.37R
FORT CARSON    FAIR      55  48  78 NW2       30.30R
LIMON          FAIR      52  50  93 N3        30.29R
MONUMENT HILL  FAIR      52  45  76 W6        30.39R
TRINIDAD       FAIR      55  49  80 SW5       30.34R
$$

COZ042>045-048>051-090-091-291400-
...NORTHEAST COLORADO...

CITY           SKY/WX    TMP DP  RH WIND       PRES   REMARKS
GREELEY ARPT   FAIR      57  50  77 NE5       30.26R
AKRON          FAIR      61  48  62 W5        30.25R
BURLINGTON     FAIR      60  56  86 NW6       30.22S
WRAY           NOT AVBL
STERLING       FAIR      54  50  87 CALM      30.22R
HOLYOKE        FAIR      59  52  77 E9        30.23R
FORT MORGAN    FAIR      58  49  73 NW3       30.26R
$$

COZ086-089-092>099-291400-
...SOUTHEAST COLORADO...

CITY           SKY/WX    TMP DP  RH WIND       PRES   REMARKS
PUEBLO         FAIR      61  50  67 W9        30.25R
LA JUNTA       FAIR      62  51  67 W14       30.21F
LAMAR          MOCLDY    62  60  93 W8        30.17R
SPRINGFIELD      N/A     60  55  83 W7        30.22R
$$



USA.gov is the U.S. government's official web portal to all federal, state and local government web resources and services.